Location: Street
(51.1247°N, 2.7429°W)
Time: 06:22:54
(UTC+00:00)

SR - Pass Details

Date: 01 December 2020
Orbit: 575 x 880 km, 66.7° (Epoch: 25 January)

Event Time Altitude Azimuth Distance (km) Brightness Sun altitude
Rises 21:19:38 0° 289° (WNW) 2,943 ? -47.4°
Enters shadow 21:20:16 - 293° (WNW) 2,747 ? -47.5°
Reaches altitude 10° 21:22:52 10° 314° (NW) 2,095 - -47.8°
Maximum altitude 21:25:31 15° 348° (NNW) 1,850 - -48.2°
Drops below altitude 10° 21:28:18 10° 22° (NNE) 2,208 - -48.6°
Sets 21:31:52 0° 46° (NE) 3,206 - -49.1°
